Tracking 32139 objects as of 15-Nov-2025
HD Live streaming from Space Station
objects crossing your sky now

DIRECTV 9S

Track DIRECTV 9S now!
DIRECTV 9S is classified as:


NORAD ID: 29494
Int'l Code: 2006-043A
Perigee: 35,780.7 km
Apogee: 35,806.5 km
Inclination: 1.9 °
Period: 1,436.1 minutes
Semi major axis: 42164 km
RCS: 13.8838 m2 (large)
Launch date: October 13, 2006
Source: United States (US)
Launch site: FRENCH GUIANA (FRGUI)

DIRECTV 9S will supply television broadcast services to the contiguous United States of America, Alaska and Hawaii
Your satellite tracking list
Your tracking list is empty




NASA's NSSDC Master Catalog

Two Line Element Set (TLE):
1 29494U 06043A   25319.43207507 -.00000106  00000-0  00000+0 0  9996
2 29494   1.8681  83.5072 0003057 156.6800 228.9432  1.00272384 49246
Source of the keplerian elements: AFSPC